EZY58E LEMG-EGCC

Flight info

Callsign EZY58E
Flight time N/A
Altitude 38000
Route BLN N865 VTB N867 BLV P87 BELEN DCT DIDIG UP87 TERPO UN867 AVANT UM184 HEMEL T420 ELVOS
Aircraft A319/M-SDE3FGHIRWY/LB1

Departure

Time 2026-05-04 11:16
Airport Málaga-Costa del Sol Airport (LEMG)

Arrival

Time N/A
Airport Manchester Airport (EGCC)
Time Latitude Longitude Altitude Speed Heading
2026-05-04 10:34 36.67417 -4.49069 42 ft 0 kts 116°
2026-05-04 11:05 36.67303 -4.49213 42 ft 0 kts 311°
2026-05-04 11:08 36.67293 -4.49251 40 ft 5 kts 232°
2026-05-04 11:10 36.67816 -4.50070 44 ft 17 kts 311°
2026-05-04 11:12 36.67941 -4.49694 42 ft 13 kts 41°
2026-05-04 11:12 36.68003 -4.49625 42 ft 11 kts 41°
2026-05-04 11:12 36.68052 -4.49571 42 ft 8 kts 42°
2026-05-04 11:12 36.68088 -4.49531 42 ft 6 kts 41°
2026-05-04 11:13 36.68122 -4.49494 42 ft 9 kts 40°
2026-05-04 11:13 36.68193 -4.49417 42 ft 18 kts 41°
2026-05-04 11:13 36.68282 -4.49269 41 ft 23 kts 102°
2026-05-04 11:13 36.68209 -4.49090 40 ft 23 kts 117°
2026-05-04 11:14 36.68134 -4.48910 40 ft 23 kts 118°
2026-05-04 11:14 36.68058 -4.48730 40 ft 24 kts 117°
2026-05-04 11:14 36.67982 -4.48549 40 ft 23 kts 117°
2026-05-04 11:16 36.68610 -4.49601 55 ft 151 kts 298°
2026-05-04 11:16 36.69082 -4.50714 747 ft 143 kts 295°
2026-05-04 11:16 36.69633 -4.51777 1275 ft 152 kts 306°
2026-05-04 11:17 36.70407 -4.52803 1630 ft 173 kts 309°
2026-05-04 11:17 36.71290 -4.53965 1991 ft 196 kts 311°
2026-05-04 11:19 36.79883 -4.60878 7521 ft 234 kts 349°
2026-05-04 11:19 36.81534 -4.60781 8282 ft 244 kts 11°
2026-05-04 11:19 36.83140 -4.59801 8740 ft 272 kts 37°
2026-05-04 11:19 36.84581 -4.58186 9455 ft 283 kts 39°
2026-05-04 11:20 36.86069 -4.56523 10165 ft 292 kts 38°
2026-05-04 11:20 36.87607 -4.54822 10840 ft 299 kts 38°
2026-05-04 11:20 36.89164 -4.53109 11549 ft 304 kts 38°
2026-05-04 11:20 36.90761 -4.51352 12339 ft 308 kts 38°
2026-05-04 11:22 37.03373 -4.39077 16020 ft 379 kts 28°
2026-05-04 11:22 37.05642 -4.37294 16456 ft 389 kts 28°
2026-05-04 11:23 37.07946 -4.35471 17079 ft 394 kts 28°
2026-05-04 11:23 37.10273 -4.33620 17729 ft 398 kts 28°
2026-05-04 11:24 37.24710 -4.22092 21129 ft 423 kts 28°